CDT,Max TemperatureF,Mean TemperatureF,Min TemperatureF,Max Dew PointF,MeanDew PointF,Min DewpointF,Max Humidity, Mean Humidity, Min Humidity, Max Sea Level PressureIn, Mean Sea Level PressureIn, Min Sea Level PressureIn, Max VisibilityMiles, Mean VisibilityMiles, Min VisibilityMiles, Max Wind SpeedMPH, Mean Wind SpeedMPH, Max Gust SpeedMPH,PrecipitationIn, CloudCover, Events, WindDirDegrees
2012-10-1,83,73,63,65,61,56,92,68,39,29.96,29.90,29.85,10,10,10,12,3,,0.01,1,Thunderstorm,340
2012-10-2,84,74,64,65,55,43,93,59,23,30.02,29.97,29.93,10,10,10,17,5,22,0.00,0,,316
2012-10-3,92,78,63,69,61,53,90,60,30,30.01,29.97,29.90,10,10,10,16,7,22,0.00,0,,142
2012-10-4,97,83,69,69,62,48,95,58,19,30.09,30.02,29.99,10,9,4,15,10,23,0.00,0,,138
2012-10-5,91,78,66,68,63,54,96,65,28,30.11,30.04,29.96,10,9,2,15,8,21,0.00,0,,139
2012-10-6,91,77,63,66,61,52,94,64,26,30.03,29.97,29.89,10,10,5,13,6,18,0.00,0,,104
2012-10-7,72,66,59,65,54,49,83,70,60,30.17,30.10,30.00,10,9,7,18,10,22,0.00,7,Rain,7
2012-10-8,66,60,55,52,48,46,71,63,54,30.24,30.16,30.11,10,10,10,14,8,17,0.00,8,,351
2012-10-9,88,74,60,70,60,52,87,63,41,30.10,30.01,29.92,10,10,10,16,4,21,0.00,4,,141
2012-10-10,93,83,73,75,71,64,93,75,37,30.08,30.01,29.94,10,9,7,20,10,30,0.03,6,Rain,120
2012-10-11,91,83,75,75,72,66,94,75,44,30.11,30.06,30.01,10,10,7,21,11,24,0.00,5,,124
2012-10-12,93,84,74,74,71,66,94,75,41,30.14,30.08,30.01,10,9,4,21,11,25,0.00,6,,122
2012-10-13,93,84,75,73,70,66,88,67,41,30.08,29.99,29.88,10,10,10,21,14,31,0.00,5,,139
2012-10-14,86,80,75,72,69,67,84,69,52,30.06,30.00,29.91,10,10,10,18,10,22,0.00,6,,129
2012-10-15,87,80,72,69,66,55,85,65,40,30.10,30.02,29.95,10,10,10,13,5,16,0.00,4,Rain,79
2012-10-16,90,80,71,71,64,58,91,65,33,29.99,29.87,29.75,10,10,10,10,4,16,0.00,1,,127
2012-10-17,96,84,71,70,64,58,89,56,27,29.79,29.73,29.64,10,10,10,13,7,20,0.00,0,,169
2012-10-18,89,79,69,70,66,58,88,64,50,29.93,29.80,29.71,10,9,7,20,5,23,0.00,1,,46
2012-10-19,85,78,70,63,55,48,73,49,40,30.04,29.97,29.92,10,10,10,13,8,16,0.00,5,,69
2012-10-20,91,80,69,72,66,61,94,65,37,29.95,29.88,29.80,10,9,2,17,7,23,0.00,4,,142
2012-10-21,93,82,72,72,68,59,95,68,33,29.94,29.88,29.83,10,8,2,18,11,26,0.00,2,,138
2012-10-22,92,81,70,71,67,57,96,67,31,29.97,29.91,29.86,10,9,3,21,12,28,0.00,3,,133
2012-10-23,90,82,73,70,67,62,85,66,39,29.96,29.92,29.87,10,10,10,16,10,24,0.00,4,,125
2012-10-24,91,79,67,68,63,55,93,65,29,29.99,29.92,29.84,10,10,10,16,8,26,0.00,1,,127
2012-10-25,93,80,68,71,63,47,93,63,21,29.91,29.85,29.79,10,10,10,17,8,22,0.00,1,,133
2012-10-26,76,64,53,70,59,49,94,83,64,30.23,30.05,29.91,10,10,4,21,8,26,0.09,5,Rain-Thunderstorm,5
2012-10-27,61,55,49,49,39,35,81,54,38,30.28,30.20,30.13,10,10,10,18,9,24,0.00,8,Rain,349
2012-10-28,68,62,54,39,32,25,46,34,20,30.27,30.20,30.16,10,10,10,10,6,10,0.00,4,,39
2012-10-29,75,61,47,48,35,30,71,43,22,30.28,30.20,30.12,10,10,10,8,3,,0.00,0,,57
2012-10-30,83,67,51,60,52,48,93,62,32,30.15,30.05,29.95,10,10,10,14,5,20,0.00,0,,139
2012-10-31,88,74,61,68,61,50,93,67,27,30.05,29.99,29.93,10,10,2,12,5,,0.00,2,,105